Tracking 34151 objects as of 20-May-2026
HD Live streaming from Space Station
objects crossing your sky now

OSCAR 15 (UOSAT 4)

Track OSCAR 15 (UOSAT 4) now!
10-day predictions
OSCAR 15 (UOSAT 4) is classified as:


NORAD ID: 20438
Int'l Code: 1990-005C
Perigee: 785.4 km
Apogee: 800.9 km
Inclination: 98.8 °
Period: 100.6 minutes
Semi major axis: 7164 km
RCS: 0.311 m2 (medium)
Launch date: January 22, 1990
Source: United Kingdom (UK)
Launch site: FRENCH GUIANA (FRGUI)

Uplink (MHz):
Downlink (MHz): 435.120
Beacon (MHz): 435.120
Mode: CW
Call sign:
Status: Reentered

Your satellite tracking list
Your tracking list is empty




NASA's NSSDC Master Catalog

Two Line Element Set (TLE):
1 20438U 90005C   26140.42976987  .00000025  00000-0  26249-4 0  9990
2 20438  98.7857 196.7119 0010874  74.9454 299.2063 14.31714778896254
Source of the keplerian elements: AFSPC